Wind_Speed
9 9 9 9 9 9 9 9 9 9 9 9 8 8 7 8 8 8 8 8 7 7 7 7 7 7 6 5 6 6 6 5 5 5 6 7 6 6 7 6 6 6 6
10 10 10 10 10 10 10 10 10 10 10 10 9 9 9 9 9 9 9 9 8 9 8 8 8 8 7 7 7 7 7 7 6 6 7 8 8 8 7 7 7 7 6
11 11 11 11 11 10 10 10 10 10 10 11 11 10 10 10 10 10 11 10 10 10 10 9 9 9 9 8 8 8 8 8 8 8 8 8 8 8 8 8 8 7 7
12 12 12 12 11 10 11 11 12 11 12 12 12 12 11 11 11 11 11 11 11 11 10 10 10 10 10 10 9 9 9 9 9 9 9 9 9 9 9 8 8 8 7
12 12 12 12 11 11 12 12 12 12 13 13 13 12 12 12 12 12 12 12 12 12 12 11 11 11 11 11 11 10 10 10 10 10 10 10 10 10 10 9 9 9 8
13 13 13 12 12 12 12 13 13 13 13 13 13 13 13 12 13 13 13 13 12 12 13 12 12 12 12 12 12 12 12 12 12 11 11 11 11 11 11 10 10 10 10
13 12 13 12 12 12 12 13 14 14 13 13 13 13 14 14 14 14 14 14 13 13 13 13 13 13 13 13 13 13 13 13 13 13 12 13 12 12 12 11 11 12 12
13 12 13 13 13 12 12 13 14 14 13 14 14 14 14 15 14 14 14 13 14 14 14 14 14 14 14 14 14 14 14 14 14 13 12 13 13 13 13 13 13 12 12
14 13 14 12 12 13 13 14 14 14 14 15 15 15 15 15 15 14 15 14 14 14 14 15 14 15 15 14 15 15 15 15 15 15 14 14 14 14 13 14 14 14 13
14 14 15 14 13 14 14 14 14 14 15 15 15 16 16 16 16 15 15 16 15 15 15 16 16 15 15 14 15 15 16 15 16 16 15 15 15 15 15 14 14 14 14
15 14 14 14 14 15 15 15 16 15 15 15 16 16 16 16 16 16 16 16 16 16 16 16 16 16 16 16 16 16 16 16 16 16 16 16 16 16 16 15 15 15 14
16 15 14 14 15 15 15 16 17 16 16 15 15 15 15 16 16 16 16 16 17 16 16 16 17 16 17 17 17 17 16 16 17 16 17 17 18 17 17 16 16 16 16
15 15 15 16 16 16 16 17 17 16 16 15 15 16 16 16 15 15 15 16 17 16 17 16 16 17 17 18 18 18 18 18 19 18 18 18 18 18 18 18 18 17 17
16 17 17 16 16 16 17 17 17 17 17 15 15 15 15 15 15 15 15 15 15 15 16 16 17 18 18 18 19 19 19 19 19 19 19 19 19 19 19 19 19 19 19
16 17 17 16 16 16 16 17 17 17 16 15 14 14 13 13 14 15 14 15 15 16 17 17 17 18 19 19 19 20 21 21 20 18 19 19 19 19 20 20 19 19 20
17 17 15 15 16 16 16 16 17 17 16 15 15 14 13 13 14 14 14 15 15 16 17 17 17 18 18 19 19 19 19 21 20 19 19 19 20 20 21 21 20 21 21
16 16 16 16 16 16 16 16 16 16 16 15 15 14 13 13 12 13 14 14 15 15 17 18 17 18 18 18 18 20 20 20 20 20 21 21 21 21 22 22 21 21 21
15 15 15 16 16 16 16 15 15 15 15 15 15 14 14 13 13 14 15 15 15 15 16 16 16 18 19 19 19 19 19 20 19 20 21 21 22 22 22 22 22 22 22
15 15 15 15 15 15 14 14 14 14 14 14 14 14 14 14 13 14 15 15 15 16 16 16 16 17 18 19 20 19 19 20 20 20 20 20 21 22 22 22 23 23 23
14 15 14 14 14 14 14 13 13 13 14 13 13 12 13 13 13 14 14 15 16 16 16 16 17 18 18 19 19 19 20 20 19 20 20 20 21 22 22 21 22 23 23
13 13 13 14 14 14 13 13 13 13 13 12 12 12 13 13 13 14 15 15 16 16 16 16 17 17 18 19 19 19 19 20 19 20 20 21 22 22 22 21 21 22 22
13 13 13 13 14 14 13 13 13 13 13 12 12 12 13 13 13 14 15 15 16 17 17 17 17 17 17 18 18 18 19 20 19 19 20 21 21 21 21 21 20 21 23
13 13 13 13 13 13 13 13 13 13 12 13 13 13 13 13 14 15 16 15 16 17 17 17 17 17 17 17 18 18 18 19 19 20 20 19 20 20 19 20 20 21 22
11 12 13 13 13 12 12 12 13 12 13 13 13 13 13 14 15 16 16 15 16 15 16 16 17 17 18 18 18 18 19 18 19 18 19 19 20 20 20 20 21 21 22
11 11 12 12 12 11 11 11 12 12 12 12 13 13 14 15 15 15 15 15 15 15 16 17 17 18 18 18 18 17 17 17 17 17 17 19 19 19 19 20 20 21 22
12 11 11 11 11 11 11 12 12 13 13 13 14 14 14 15 15 15 15 15 16 16 17 17 17 17 17 17 17 17 17 18 18 18 17 18 18 18 19 19 20 21 22
Wind_Direction
299 295 289 286 285 285 282 277 273 268 261 259 256 258 257 258 257 253 255 253 248 242 238 239 240 244 245 241 242 244 244 247 250 249 239 237 242 246 248 249 243 246 248
297 293 288 286 285 282 280 279 274 270 262 259 259 261 262 260 259 259 257 254 252 248 244 241 241 246 249 248 247 250 250 253 254 251 242 244 248 250 245 244 245 249 247
294 291 287 284 282 280 278 277 280 273 268 265 263 264 266 263 261 261 258 255 252 247 248 249 248 248 248 248 249 250 252 253 253 254 251 247 248 248 247 247 250 251 252
293 291 287 283 281 279 278 275 273 269 270 266 265 265 266 265 262 261 259 255 254 248 249 253 252 252 254 253 251 251 250 253 255 252 245 244 247 249 249 249 250 250 245
293 290 287 284 281 280 280 279 275 272 272 267 265 266 268 268 266 261 257 258 257 251 251 252 253 254 254 253 252 251 251 254 252 249 246 248 249 248 250 250 247 250 245
292 287 285 282 281 281 282 280 279 276 272 268 267 269 270 269 267 263 259 262 257 256 250 250 251 252 254 253 251 252 254 257 254 252 251 251 250 251 251 250 248 249 248
291 286 285 281 280 281 282 279 281 277 271 267 269 271 270 267 269 264 260 261 260 259 253 251 252 253 255 255 256 257 259 262 259 258 256 253 251 250 250 250 249 246 248
292 288 284 282 280 280 281 285 286 277 270 268 271 270 270 267 268 264 260 258 260 259 255 254 255 258 259 262 262 261 261 261 263 259 261 258 253 250 247 247 248 247 247
293 289 286 286 283 280 282 283 285 281 276 272 272 273 270 267 266 263 261 260 262 259 257 257 256 259 261 264 264 263 261 261 261 259 260 261 255 252 250 249 248 248 249
295 289 286 287 286 281 281 283 284 285 281 278 277 279 274 269 266 264 262 262 262 259 258 258 260 261 263 265 266 265 264 261 260 257 258 259 256 252 250 250 249 250 251
295 290 288 288 288 285 284 283 282 286 284 282 281 281 275 269 266 265 265 264 264 261 261 261 259 261 264 265 266 267 267 264 259 258 257 257 256 256 252 250 251 251 249
292 290 290 290 287 285 284 284 283 286 285 283 281 279 275 271 269 267 269 267 266 262 263 263 261 260 263 264 263 266 268 266 265 262 261 257 257 258 256 250 251 251 252
294 292 292 293 292 289 286 284 286 287 286 283 281 281 277 273 270 270 273 270 268 265 265 264 262 261 263 266 266 265 267 269 267 263 260 259 259 258 257 252 250 252 253
297 294 292 293 294 292 288 287 287 288 286 282 282 279 278 275 273 273 273 270 270 267 267 267 267 263 264 266 268 265 265 267 268 265 263 260 258 257 257 254 253 255 256
293 292 290 292 294 294 291 290 290 290 288 286 285 282 278 277 273 272 273 272 272 270 271 272 270 268 266 267 268 268 264 267 265 263 262 259 258 257 257 255 255 257 257
291 291 289 290 294 295 292 290 289 288 287 289 286 288 284 283 277 271 275 276 274 274 275 274 275 274 269 268 267 268 269 266 263 263 263 261 259 257 257 255 255 256 257
293 291 292 294 295 296 295 290 289 288 285 288 288 289 285 282 282 279 279 278 279 279 279 280 277 276 274 270 269 270 267 266 262 263 264 264 261 260 258 258 257 256 257
293 293 295 294 296 297 294 291 287 284 285 288 285 284 285 283 283 284 283 282 283 282 282 279 278 275 275 274 273 271 266 266 263 264 266 265 264 261 260 259 256 256 256
293 292 294 294 297 298 297 293 289 288 287 288 283 284 287 283 282 284 285 283 285 286 286 282 281 276 276 276 273 272 269 265 265 269 268 266 266 264 263 262 259 256 256
292 291 291 293 295 298 295 294 290 291 290 287 286 285 289 291 289 284 285 286 287 290 289 288 284 282 279 277 274 273 273 269 269 269 269 270 271 270 267 266 264 259 257
295 291 288 290 293 295 295 294 291 289 292 292 288 290 292 296 297 293 291 289 289 292 291 289 288 288 286 281 275 274 275 274 271 270 270 271 271 270 266 265 262 261 258
292 292 293 294 293 295 297 297 294 293 292 292 292 292 298 298 300 301 296 292 293 294 296 293 292 292 291 288 284 280 278 277 273 273 272 271 270 268 266 265 262 261 258
290 287 291 294 294 296 297 297 296 295 294 292 292 296 298 298 298 299 297 294 296 296 298 296 292 293 293 291 287 284 284 281 277 276 274 271 267 267 266 265 265 263 261
294 291 291 293 294 295 294 297 300 298 294 293 294 294 295 296 297 299 297 296 297 299 301 300 295 293 294 293 289 286 285 284 280 276 275 274 270 267 268 268 267 266 264
298 297 294 291 293 295 298 301 305 302 298 296 295 295 295 297 301 301 300 302 303 302 301 301 296 293 294 292 291 289 286 285 284 281 280 277 274 271 270 271 270 269 268
299 300 300 300 296 294 295 298 303 304 303 301 299 301 301 301 302 303 303 304 305 304 302 301 299 296 294 293 291 290 289 287 285 285 281 279 276 276 275 273 271 271 270
Height
5882 5881 5880 5880 5880 5879 5879 5878 5878 5878 5877 5877 5877 5877 5877 5877 5877 5877 5877 5877 5877 5877 5877 5877 5878 5878 5878 5878 5879 5879 5880 5880 5880 5880 5881 5881 5882 5883 5883 5884 5885 5886 5887
5880 5879 5879 5879 5878 5878 5877 5877 5876 5876 5876 5876 5876 5876 5875 5875 5876 5876 5876 5876 5876 5876 5876 5876 5876 5877 5877 5877 5878 5878 5879 5879 5879 5880 5880 5880 5881 5882 5882 5883 5884 5885 5886
5878 5878 5877 5877 5877 5876 5876 5875 5875 5874 5875 5874 5874 5874 5874 5874 5874 5874 5874 5874 5874 5874 5875 5875 5875 5875 5875 5876 5876 5877 5877 5878 5878 5878 5879 5879 5880 5880 5881 5882 5882 5884 5885
5877 5876 5876 5875 5875 5874 5874 5873 5873 5872 5872 5872 5872 5872 5872 5872 5872 5872 5872 5872 5872 5872 5873 5873 5873 5874 5874 5874 5875 5875 5876 5876 5877 5877 5878 5878 5879 5879 5880 5880 5881 5882 5883
5875 5874 5873 5873 5872 5872 5871 5871 5871 5870 5870 5870 5870 5870 5869 5869 5869 5869 5869 5870 5870 5870 5871 5871 5871 5872 5872 5873 5873 5874 5874 5874 5875 5875 5876 5877 5877 5878 5878 5879 5879 5880 5881
5873 5872 5871 5870 5870 5870 5869 5869 5868 5868 5867 5867 5867 5867 5867 5867 5867 5867 5867 5867 5868 5868 5868 5868 5869 5869 5870 5870 5871 5871 5872 5872 5872 5873 5874 5875 5875 5876 5876 5877 5878 5878 5879
5871 5870 5869 5868 5868 5867 5867 5866 5866 5865 5865 5865 5865 5865 5864 5864 5864 5864 5865 5865 5864 5865 5865 5865 5866 5867 5867 5868 5869 5869 5869 5870 5870 5871 5872 5872 5873 5873 5874 5875 5876 5877 5878
5868 5867 5867 5865 5865 5865 5865 5864 5863 5862 5862 5862 5862 5862 5862 5862 5862 5862 5862 5862 5862 5862 5863 5863 5863 5864 5865 5866 5866 5866 5867 5867 5868 5869 5869 5869 5870 5871 5871 5873 5874 5875 5876
5866 5865 5864 5863 5863 5862 5862 5861 5861 5860 5859 5859 5859 5859 5859 5859 5859 5859 5859 5859 5859 5859 5860 5860 5860 5861 5862 5862 5863 5863 5864 5864 5865 5866 5866 5866 5867 5868 5869 5870 5871 5872 5873
5863 5862 5861 5860 5860 5860 5860 5859 5858 5857 5856 5856 5856 5855 5855 5855 5855 5855 5856 5856 5856 5857 5857 5857 5858 5858 5859 5859 5859 5860 5860 5861 5861 5863 5863 5864 5865 5865 5866 5867 5867 5868 5870
5861 5860 5859 5858 5857 5856 5856 5856 5855 5854 5853 5853 5852 5852 5852 5852 5852 5852 5852 5853 5853 5853 5853 5854 5854 5854 5855 5855 5856 5856 5857 5857 5858 5859 5859 5860 5861 5862 5862 5863 5864 5865 5867
5858 5857 5856 5855 5854 5854 5853 5852 5851 5851 5850 5849 5849 5849 5848 5848 5848 5849 5849 5849 5849 5849 5850 5850 5850 5851 5851 5852 5852 5853 5853 5853 5854 5855 5856 5856 5857 5858 5859 5859 5861 5862 5863
5855 5854 5853 5852 5851 5851 5850 5849 5848 5848 5847 5846 5845 5845 5845 5845 5845 5845 5845 5845 5845 5845 5846 5846 5847 5847 5848 5848 5849 5849 5849 5850 5850 5851 5852 5852 5853 5854 5855 5856 5857 5858 5860
5852 5851 5850 5849 5848 5848 5847 5846 5845 5845 5844 5843 5841 5841 5842 5842 5842 5842 5842 5842 5841 5842 5842 5842 5843 5843 5844 5844 5844 5844 5845 5846 5846 5847 5848 5848 5849 5850 5851 5852 5853 5854 5855
5849 5848 5847 5846 5846 5845 5844 5843 5842 5841 5840 5840 5839 5839 5839 5839 5839 5839 5839 5839 5839 5839 5839 5839 5839 5839 5839 5839 5839 5839 5840 5841 5841 5842 5842 5843 5845 5846 5847 5847 5848 5849 5850
5846 5845 5844 5844 5843 5842 5841 5840 5839 5839 5838 5838 5837 5836 5836 5835 5835 5835 5835 5835 5835 5835 5835 5835 5835 5835 5834 5834 5835 5835 5835 5836 5836 5836 5838 5838 5839 5841 5842 5843 5843 5844 5845
5843 5842 5841 5841 5841 5840 5839 5837 5837 5836 5835 5835 5834 5833 5833 5832 5832 5832 5832 5832 5832 5831 5831 5830 5830 5830 5830 5830 5831 5831 5831 5831 5831 5832 5833 5833 5833 5835 5836 5837 5838 5839 5840
5841 5840 5838 5838 5838 5837 5835 5835 5834 5833 5832 5832 5831 5830 5830 5829 5829 5829 5829 5828 5828 5827 5827 5826 5825 5825 5825 5826 5826 5826 5826 5826 5826 5827 5827 5828 5828 5829 5830 5831 5832 5833 5834
5838 5838 5837 5836 5835 5834 5832 5832 5831 5830 5830 5829 5828 5827 5826 5826 5826 5826 5825 5825 5824 5824 5822 5821 5821 5820 5820 5821 5821 5821 5820 5820 5821 5821 5821 5822 5823 5823 5824 5825 5826 5827 5828
5836 5835 5834 5833 5832 5831 5830 5829 5828 5828 5827 5826 5825 5824 5823 5823 5822 5822 5821 5821 5820 5819 5818 5817 5817 5816 5816 5816 5815 5815 5815 5815 5815 5816 5817 5816 5816 5817 5818 5819 5820 5821 5822
5833 5832 5832 5831 5830 5829 5828 5827 5826 5825 5824 5823 5822 5822 5821 5820 5820 5819 5818 5817 5816 5816 5814 5814 5812 5811 5811 5810 5810 5810 5809 5809 5809 5810 5810 5811 5811 5811 5811 5812 5813 5814 5816
5831 5830 5829 5828 5827 5826 5825 5824 5823 5822 5821 5821 5820 5820 5819 5818 5817 5816 5815 5814 5813 5812 5811 5809 5808 5807 5806 5805 5805 5804 5804 5805 5804 5804 5805 5805 5805 5805 5805 5806 5807 5809 5810
5828 5828 5827 5826 5825 5824 5823 5822 5821 5820 5819 5818 5818 5817 5816 5815 5814 5813 5812 5811 5809 5808 5807 5805 5804 5803 5802 5801 5800 5799 5799 5799 5799 5799 5798 5799 5799 5799 5800 5800 5801 5802 5804
5826 5825 5824 5823 5823 5822 5821 5820 5819 5818 5817 5816 5815 5814 5813 5812 5811 5810 5809 5808 5806 5805 5803 5802 5801 5799 5798 5797 5795 5795 5794 5794 5794 5793 5793 5793 5793 5794 5794 5795 5796 5797 5798
5824 5823 5822 5821 5821 5820 5819 5818 5817 5816 5815 5814 5813 5812 5811 5810 5809 5808 5806 5805 5803 5802 5800 5798 5797 5796 5794 5792 5791 5790 5790 5789 5789 5788 5788 5788 5788 5788 5789 5790 5790 5791 5792
5822 5821 5820 5819 5819 5818 5817 5816 5815 5814 5813 5812 5811 5810 5809 5808 5806 5805 5804 5802 5800 5798 5796 5795 5793 5792 5790 5789 5788 5787 5786 5785 5785 5784 5783 5783 5783 5783 5784 5784 5785 5785 5786